Temp
16 16 16 16 16 17 17 17 17 16 15 15 14 13 12 12 12 12 11 11 10 10
16 17 16 17 16 16 16 16 15 13 12 12 12 12 11 10 10 10 10 9 9 8
16 16 16 16 16 16 15 14 14 12 11 10 10 10 9 9 9 9 8 8 7 5
15 15 14 13 14 13 12 12 11 10 10 9 8 8 8 8 8 8 6 5 5 4
11 11 11 11 11 11 10 10 10 9 8 7 8 8 7 7 6 6 4 4 3 2
8 8 9 9 8 9 9 9 8 7 7 6 6 6 6 7 5 4 3 2 1 1
6 6 7 7 7 7 7 6 6 5 5 5 5 5 4 4 3 2 1 1 1 0
5 5 5 5 5 5 4 4 4 4 4 4 4 3 3 2 1 1 0 0 0 -0
3 3 3 2 2 3 2 2 2 2 2 2 2 2 1 2 1 0 -0 -1 -2 -0
2 1 1 2 2 2 1 1 1 1 2 1 1 0 -0 0 0 -0 -2 -1 -1 -1
1 1 1 1 0 -0 0 0 0 0 0 0 -0 -0 -0 -1 -1 -1 -1 -1 -1 -2
0 0 -0 -0 -0 -0 -0 -0 -0 -0 -0 -1 -1 -2 -1 -0 -1 -1 -2 -2 -2 -3
0 0 -0 -0 -0 -0 -0 -1 -1 -1 -2 -2 -2 -2 -2 -1 -1 -2 -2 -3 -3 -3
0 -0 -0 -0 -0 -1 -1 -2 -3 -3 -2 -2 -1 -0 -1 -2 -2 -3 -3 -4 -4 -4
Height
729 729 727 729 730 731 732 734 738 742 746 750 757 763 768 775 781 785 790 793 798 801
725 724 724 724 724 725 727 729 732 737 741 746 751 756 762 768 775 781 786 790 795 796
717 717 718 719 719 720 721 725 728 732 737 743 748 754 760 765 772 778 784 788 790 800
713 712 712 714 714 716 720 722 725 730 733 740 746 752 758 764 769 775 781 786 792 798
711 710 710 711 713 713 718 722 725 729 734 739 744 750 756 762 768 773 780 785 789 795
712 710 711 711 714 715 718 722 726 730 733 737 742 751 757 761 768 776 780 785 788 790
716 713 713 715 716 718 720 723 726 731 736 740 745 753 759 764 769 775 782 785 789 789
717 716 716 718 720 721 724 728 732 735 738 742 746 755 761 767 771 776 781 787 787 788
722 721 721 722 725 727 729 733 738 742 745 748 753 761 764 769 775 778 783 783 785 787
730 727 726 728 730 733 735 739 744 749 753 758 763 766 768 773 772 779 782 785 786 788
734 732 732 733 736 740 743 745 750 754 759 764 767 769 770 774 778 779 781 790 786 786
741 739 738 741 747 749 750 755 756 761 766 768 768 773 773 775 780 782 783 786 786 785
748 747 748 751 754 756 758 760 762 764 767 774 774 776 776 781 783 782 785 786 785 785
753 753 754 757 759 762 764 766 767 769 774 776 777 779 781 782 782 784 784 784 783 782
Wind_Speed
26 31 35 35 36 38 39 40 43 46 46 45 45 43 41 37 37 34 29 21 18 13
16 21 30 35 36 37 37 36 34 38 41 40 41 41 37 35 33 28 25 19 16 15
21 20 23 30 34 36 36 33 30 31 33 35 34 33 31 29 27 25 21 18 16 11
20 19 19 24 29 28 27 25 24 24 28 28 27 27 26 27 27 26 23 18 15 10
17 13 13 16 19 17 17 16 19 21 23 24 25 26 27 29 27 26 20 16 14 9
13 9 7 7 8 8 12 15 18 21 24 26 26 26 28 28 24 19 16 13 12 10
4 3 5 9 12 14 17 20 22 23 23 24 26 28 26 24 22 19 15 12 9 7
10 11 14 15 16 18 18 19 20 24 27 30 31 27 24 20 19 18 13 8 4 2
15 17 19 19 21 21 23 23 23 26 27 27 25 22 22 20 16 11 8 5 4 1
15 21 22 22 22 23 26 26 27 26 25 24 22 20 17 13 12 8 8 3 3 4
16 20 20 23 24 25 26 27 26 25 25 23 18 13 12 12 10 10 7 3 1 1
17 19 23 25 24 24 26 25 26 22 20 19 17 13 12 11 8 7 5 2 2 4
16 21 23 23 24 23 23 22 22 21 18 13 14 9 7 4 3 3 1 1 5 8
18 20 22 21 21 21 21 20 19 19 15 13 11 10 8 5 4 1 1 6 9 9
Wind_Direction
247 240 241 238 234 236 236 238 234 227 227 225 224 224 223 219 219 220 216 214 213 211
270 255 250 250 246 243 242 238 233 229 223 221 221 220 218 216 215 212 207 201 195 187
301 285 262 253 250 244 243 239 234 225 222 219 218 216 212 208 205 196 186 180 169 174
309 296 276 255 246 244 242 234 226 217 213 208 203 202 201 195 181 174 164 157 152 156
322 309 276 256 247 232 231 222 213 202 196 190 187 188 184 168 165 161 158 160 163 157
328 321 276 241 226 211 198 188 179 179 175 173 172 169 165 160 152 152 150 150 140 132
5 57 127 145 150 152 157 158 160 162 158 154 150 151 146 147 140 140 137 135 154 174
89 114 122 126 132 135 137 138 142 143 142 142 141 144 144 137 135 135 142 155 179 209
92 103 105 110 112 118 119 125 125 123 130 130 126 130 131 137 136 129 137 108 50 49
98 96 102 110 114 116 117 124 121 120 121 116 115 117 116 128 119 111 83 87 161 168
92 101 107 110 108 110 114 114 118 119 122 119 111 106 102 95 96 104 105 192 109 25
89 87 94 95 100 104 110 112 110 111 110 107 99 101 104 97 120 113 89 42 11 347
104 104 104 107 109 109 108 106 108 103 99 108 112 104 107 106 96 69 37 327 322 316
106 106 107 108 109 112 108 107 107 110 116 119 114 104 89 82 64 63 340 328 335 339